Flood From: 19-02-2018 10:30 Until: 20-02-2018 06:00 warning for: Flood Level: Yellow info button

Although rather usual in this region, locally or potentially dangerous phenomena are expected. (such as local winds, summer thunderstorms, rising streams or high waves) Be aware and pay attention to the latest weather updates, especially if you carry out activities exposed to weather or close to a stream or shoreline. 


Meteo18 Weather Cam more information Meteo18 Weather Cam


Thunder radar more information blitzortung!


Rain radar more information rain snow radar


Visit our other weather sites:

Template documentation
and downloads

And another site



Weather Underground History page Text

Daily Summary for January 26, 2017 Units:  English    Metric   Both
« Previous Day
Next Day »
Daily Weekly Monthly Yearly Custom
  High: Low: Average:
Temperature: TemperatureC °F -7.9 °F -1.4 °F
Dew Point: DewpointC °F -9.1 °F -4.8 °F
Humidity: Humidity % 57 % 79 %
Wind Speed: WindSpeedKMH mph 0.0 mph 3.5 mph
Wind Gust: WindSpeedGustKMH mph - -
Wind:- - East
Pressure: PressurehPa in 1015.5 in -
Precipitation: 0.3 in    
Historical Graphs
 
 
Tabular Data for January 26, 2017
Time Temperature Dew Point Pressure Wind Wind Speed Wind Gust Humidity Rainfall Rate (Hourly)
TemperatureC °F DewpointC °F PressurehPa in Calm     Humidity % HourlyPrecipMM in
00:02 -5.0 °F -7.1 °F 1024.9 in Calm   4.8 mph 85 % 0.0 in
00:12 -5.1 °F -7.2 °F 1024.9 in Calm   4.8 mph 85 % 0.0 in
00:17 -5.2 °F -7.2 °F 1024.9 in Calm   1.6 mph 86 % 0.0 in
00:22 -5.2 °F -7.2 °F 1024.9 in Calm   1.6 mph 86 % 0.0 in
00:27 -5.2 °F -7.2 °F 1024.6 in Calm   1.6 mph 86 % 0.0 in
00:32 -5.3 °F -7.3 °F 1024.6 in Calm   1.6 mph 86 % 0.0 in
00:37 -5.4 °F -7.2 °F 1024.6 in Calm   1.6 mph 87 % 0.0 in
00:42 -5.4 °F -7.2 °F 1024.6 in ENE 1.6 mph 1.6 mph 87 % 0.0 in
00:52 -5.3 °F -7.3 °F 1024.9 in ENE 1.6 mph 1.6 mph 86 % 0.0 in
00:57 -5.3 °F -7.3 °F 1024.9 in NE 1.6 mph 4.8 mph 86 % 0.0 in
01:02 -5.4 °F -7.4 °F 1024.9 in ENE 4.8 mph 4.8 mph 86 % 0.0 in
01:12 -5.6 °F -7.4 °F 1024.9 in Calm   6.4 mph 87 % 0.0 in
01:17 -5.7 °F -7.5 °F 1024.9 in NNE 3.2 mph 6.4 mph 87 % 0.0 in
01:22 -5.7 °F -7.5 °F 1024.9 in Calm   6.4 mph 87 % 0.0 in
01:27 -5.7 °F -7.5 °F 1024.9 in Calm   4.8 mph 87 % 0.0 in
01:32 -5.8 °F -7.6 °F 1024.9 in Calm   4.8 mph 87 % 0.0 in
01:37 -5.8 °F -7.5 °F 1024.6 in Calm   3.2 mph 88 % 0.0 in
01:42 -5.8 °F -7.5 °F 1024.6 in ENE 1.6 mph 3.2 mph 88 % 0.0 in
01:47 -5.9 °F -7.6 °F 1024.6 in ENE 3.2 mph 3.2 mph 88 % 0.0 in
01:52 -5.8 °F -7.5 °F 1024.6 in East 3.2 mph 3.2 mph 88 % 0.0 in
01:57 -5.9 °F -7.7 °F 1024.6 in East 3.2 mph 6.4 mph 87 % 0.0 in
02:02 -6.0 °F -7.7 °F 1024.6 in ENE 1.6 mph 6.4 mph 88 % 0.0 in
02:12 -5.9 °F -7.6 °F 1024.6 in Calm   6.4 mph 88 % 0.0 in
02:17 -6.0 °F -7.7 °F 1024.3 in ENE 3.2 mph 4.8 mph 88 % 0.0 in
02:22 -6.1 °F -7.8 °F 1024.3 in ENE 1.6 mph 4.8 mph 88 % 0.0 in
02:32 -6.1 °F -7.8 °F 1024.3 in Calm   4.8 mph 88 % 0.0 in
02:37 -6.1 °F -7.8 °F 1023.9 in NE 1.6 mph 4.8 mph 88 % 0.0 in
02:42 -6.1 °F -7.6 °F 1023.9 in Calm   4.8 mph 89 % 0.0 in
02:47 -6.1 °F -7.6 °F 1023.9 in Calm   3.2 mph 89 % 0.0 in
02:52 -6.1 °F -7.8 °F 1023.9 in Calm   3.2 mph 88 % 0.0 in
02:57 -6.1 °F -7.8 °F 1023.9 in Calm   3.2 mph 88 % 0.0 in
03:02 -6.3 °F -8.0 °F 1023.9 in Calm   1.6 mph 88 % 0.0 in
03:12 -6.5 °F -8.0 °F 1023.6 in Calm   1.6 mph 89 % 0.0 in
03:17 -6.6 °F -8.1 °F 1023.6 in Calm   1.6 mph 89 % 0.0 in
03:22 -6.6 °F -8.1 °F 1023.6 in Calm   1.6 mph 89 % 0.0 in
03:27 -6.6 °F -8.1 °F 1023.6 in Calm   1.6 mph 89 % 0.0 in
03:32 -6.4 °F -7.9 °F 1023.6 in NNE 1.6 mph 1.6 mph 89 % 0.0 in
03:37 -6.4 °F -7.9 °F 1023.6 in NE 1.6 mph 1.6 mph 89 % 0.0 in
03:42 -6.3 °F -7.8 °F 1023.6 in NE 1.6 mph 3.2 mph 89 % 0.0 in
03:47 -6.3 °F -7.8 °F 1023.6 in NE 4.8 mph 4.8 mph 89 % 0.0 in
03:52 -6.2 °F -7.7 °F 1023.6 in NE 1.6 mph 3.2 mph 89 % 0.0 in
03:57 -6.3 °F -7.8 °F 1023.2 in NNE 3.2 mph 4.8 mph 89 % 0.0 in
04:02 -6.3 °F -8.0 °F 1023.2 in NE 1.6 mph 4.8 mph 88 % 0.0 in
04:12 -6.6 °F -8.1 °F 1023.2 in Calm   4.8 mph 89 % 0.0 in
04:17 -6.7 °F -8.2 °F 1023.2 in Calm   3.2 mph 89 % 0.0 in
04:22 -6.7 °F -8.1 °F 1023.2 in NE 1.6 mph 3.2 mph 90 % 0.0 in
04:27 -6.6 °F -8.0 °F 1023.2 in NE 3.2 mph 3.2 mph 90 % 0.0 in
04:32 -6.6 °F -8.0 °F 1023.2 in NE 3.2 mph 4.8 mph 90 % 0.0 in
04:37 -6.6 °F -8.1 °F 1023.2 in NE 3.2 mph 6.4 mph 89 % 0.0 in
04:42 -6.7 °F -8.2 °F 1023.2 in NE 3.2 mph 8.0 mph 89 % 0.0 in
04:47 -6.6 °F -8.0 °F 1023.2 in NE 3.2 mph 8.0 mph 90 % 0.0 in
04:52 -6.6 °F -8.0 °F 1022.9 in NE 8.0 mph 8.0 mph 90 % 0.0 in
04:57 -6.6 °F -8.0 °F 1022.9 in ENE 4.8 mph 8.0 mph 90 % 0.0 in
05:02 -6.6 °F -8.0 °F 1022.9 in NE 3.2 mph 8.0 mph 90 % 0.0 in
05:07 -6.6 °F -8.0 °F 1022.9 in NE 3.2 mph 8.0 mph 90 % 0.0 in
05:12 -6.6 °F -8.0 °F 1022.9 in NE 8.0 mph 8.0 mph 90 % 0.0 in
05:17 -6.6 °F -8.1 °F 1022.9 in NE 4.8 mph 8.0 mph 89 % 0.0 in
05:22 -6.7 °F -8.1 °F 1022.9 in ENE 3.2 mph 8.0 mph 90 % 0.0 in
05:27 -6.6 °F -8.0 °F 1022.6 in NE 4.8 mph 8.0 mph 90 % 0.0 in
05:32 -6.7 °F -8.1 °F 1022.6 in NE 3.2 mph 6.4 mph 90 % 0.0 in
05:37 -6.7 °F -8.1 °F 1022.6 in NE 4.8 mph 6.4 mph 90 % 0.0 in
05:42 -6.7 °F -8.1 °F 1022.6 in NE 6.4 mph 6.4 mph 90 % 0.0 in
05:47 -6.7 °F -8.1 °F 1022.6 in NE 8.0 mph 8.0 mph 90 % 0.0 in
05:52 -6.7 °F -8.1 °F 1022.6 in NNE 6.4 mph 8.0 mph 90 % 0.0 in
05:57 -6.6 °F -8.0 °F 1022.6 in NE 3.2 mph 8.0 mph 90 % 0.0 in
06:02 -6.7 °F -8.1 °F 1022.6 in NE 1.6 mph 9.7 mph 90 % 0.0 in
06:07 -6.7 °F -8.1 °F 1022.6 in NE 4.8 mph 9.7 mph 90 % 0.0 in
06:12 -6.8 °F -8.2 °F 1022.6 in NNE 1.6 mph 8.0 mph 90 % 0.0 in
06:17 -6.8 °F -8.2 °F 1022.6 in NNE 1.6 mph 8.0 mph 90 % 0.0 in
06:22 -6.9 °F -8.3 °F 1022.6 in NNE 1.6 mph 4.8 mph 90 % 0.0 in
06:32 -7.1 °F -8.5 °F 1022.6 in Calm   4.8 mph 90 % 0.0 in
06:42 -7.1 °F -8.3 °F 1022.6 in NNE 3.2 mph 3.2 mph 91 % 0.0 in
06:47 -7.1 °F -8.5 °F 1022.6 in NNE 3.2 mph 3.2 mph 90 % 0.0 in
06:52 -7.2 °F -8.4 °F 1022.2 in NNE 1.6 mph 6.4 mph 91 % 0.0 in
07:02 -7.2 °F -8.4 °F 1022.2 in NNE 3.2 mph 6.4 mph 91 % 0.0 in
07:07 -7.2 °F -8.4 °F 1022.2 in NNE 1.6 mph 6.4 mph 91 % 0.0 in
07:17 -7.3 °F -8.5 °F 1022.2 in NNE 1.6 mph 4.8 mph 91 % 0.0 in
07:22 -7.3 °F -8.5 °F 1022.2 in Calm   3.2 mph 91 % 0.0 in
07:27 -7.3 °F -8.5 °F 1022.2 in Calm   3.2 mph 91 % 0.0 in
07:32 -7.4 °F -8.6 °F 1022.2 in Calm   3.2 mph 91 % 0.0 in
07:37 -7.5 °F -8.7 °F 1022.2 in Calm   3.2 mph 91 % 0.0 in
07:42 -7.6 °F -8.8 °F 1022.2 in Calm     91 % 0.0 in
07:47 -7.6 °F -8.8 °F 1022.2 in Calm     91 % 0.0 in
07:52 -7.7 °F -8.8 °F 1022.2 in Calm     92 % 0.0 in
07:57 -7.7 °F -8.8 °F 1022.2 in Calm     92 % 0.0 in
08:02 -7.6 °F -8.7 °F 1022.2 in Calm   1.6 mph 92 % 0.0 in
08:07 -7.6 °F -8.7 °F 1022.2 in Calm   1.6 mph 92 % 0.0 in
08:12 -7.7 °F -8.8 °F 1022.2 in Calm   1.6 mph 92 % 0.0 in
08:17 -7.7 °F -8.9 °F 1022.2 in Calm   1.6 mph 91 % 0.0 in
08:22 -7.8 °F -8.9 °F 1022.2 in Calm   1.6 mph 92 % 0.0 in
08:27 -7.9 °F -9.1 °F 1022.2 in Calm   1.6 mph 91 % 0.0 in
08:32 -7.7 °F -8.8 °F 1022.2 in Calm   1.6 mph 92 % 0.0 in
08:37 -7.7 °F -8.8 °F 1022.2 in Calm   1.6 mph 92 % 0.0 in
08:42 -7.6 °F -8.7 °F 1022.2 in Calm   1.6 mph 92 % 0.0 in
08:47 -7.4 °F -8.5 °F 1022.2 in Calm   1.6 mph 92 % 0.0 in
08:52 -7.4 °F -8.6 °F 1021.9 in Calm   1.6 mph 91 % 0.0 in
08:57 -7.2 °F -8.3 °F 1021.9 in Calm   1.6 mph 92 % 0.0 in
09:02 -6.9 °F -8.1 °F 1021.9 in Calm   1.6 mph 91 % 0.0 in
09:07 -6.8 °F -8.0 °F 1021.9 in Calm   1.6 mph 91 % 0.0 in
09:12 -6.6 °F -8.0 °F 1021.9 in Calm     90 % 0.0 in
09:17 -6.4 °F -7.8 °F 1021.9 in Calm     90 % 0.0 in
09:22 -6.2 °F -7.7 °F 1021.9 in Calm     89 % 0.0 in
09:27 -6.1 °F -7.6 °F 1021.9 in Calm     89 % 0.0 in
09:32 -5.8 °F -7.2 °F 1021.9 in Calm     90 % 0.0 in
09:37 -5.4 °F -6.9 °F 1022.2 in Calm     89 % 0.0 in
09:42 -4.9 °F -6.7 °F 1022.2 in Calm   3.2 mph 87 % 0.0 in
09:47 -4.8 °F -6.8 °F 1022.2 in Calm   3.2 mph 86 % 0.0 in
09:52 -4.6 °F -6.7 °F 1021.9 in East 1.6 mph 4.8 mph 85 % 0.0 in
09:57 -4.5 °F -6.6 °F 1021.9 in ENE 3.2 mph 4.8 mph 85 % 0.0 in
10:02 -4.4 °F -6.5 °F 1021.9 in NE 1.6 mph 8.0 mph 85 % 0.0 in
10:07 -4.2 °F -6.3 °F 1022.2 in Calm   8.0 mph 85 % 0.0 in
10:12 -4.0 °F -6.5 °F 1021.9 in Calm   8.0 mph 83 % 0.0 in
10:17 -3.9 °F -6.4 °F 1021.9 in ENE 3.2 mph 8.0 mph 83 % 0.0 in
10:22 -4.1 °F -6.6 °F 1021.9 in Calm   8.0 mph 83 % 0.0 in
10:27 -3.8 °F -6.3 °F 1021.9 in Calm   8.0 mph 83 % 0.0 in
10:32 -3.7 °F -6.2 °F 1021.6 in Calm   9.7 mph 83 % 0.0 in
10:42 -3.6 °F -6.1 °F 1021.9 in Calm   4.8 mph 83 % 0.0 in
10:47 -3.4 °F -5.9 °F 1021.6 in ENE 1.6 mph 4.8 mph 83 % 0.0 in
10:52 -3.2 °F -5.7 °F 1021.6 in Calm   4.8 mph 83 % 0.0 in
11:02 -2.6 °F -5.1 °F 1021.6 in Calm   4.8 mph 83 % 0.0 in
11:07 -1.9 °F -4.7 °F 1021.6 in ENE 4.8 mph 4.8 mph 81 % 0.0 in
11:12 -2.2 °F -5.2 °F 1021.6 in ESE 1.6 mph 8.0 mph 80 % 0.0 in
11:17 -2.2 °F -5.3 °F 1021.6 in East 4.8 mph 8.0 mph 79 % 0.0 in
11:22 -2.1 °F -5.2 °F 1021.6 in SSE 4.8 mph 8.0 mph 79 % 0.0 in
11:27 -1.9 °F -5.1 °F 1021.6 in East 4.8 mph 8.0 mph 79 % 0.0 in
11:32 -1.6 °F -4.8 °F 1021.6 in Calm   8.0 mph 79 % 0.0 in
11:37 -1.4 °F -4.7 °F 1021.6 in ESE 4.8 mph 8.0 mph 78 % 0.0 in
11:42 -1.3 °F -4.6 °F 1021.6 in ENE 6.4 mph 11.3 mph 78 % 0.0 in
11:52 -0.9 °F -4.4 °F 1021.6 in ENE 1.6 mph 14.5 mph 77 % 0.0 in
11:57 -0.7 °F -4.2 °F 1021.2 in East 4.8 mph 14.5 mph 77 % 0.0 in
12:07 -0.7 °F -4.6 °F 1021.2 in SE 1.6 mph 11.3 mph 75 % 0.0 in
12:12 -0.3 °F -4.0 °F 1021.2 in East 4.8 mph 11.3 mph 76 % 0.0 in
12:17 -0.1 °F -3.8 °F 1021.2 in East 6.4 mph 9.7 mph 76 % 0.0 in
12:22 0.2 °F -3.7 °F 1020.9 in SSE 1.6 mph 9.7 mph 75 % 0.0 in
12:32 0.5 °F -3.6 °F 1020.9 in SE 1.6 mph 9.7 mph 74 % 0.0 in
12:37 0.8 °F -3.5 °F 1020.9 in ENE 6.4 mph 9.7 mph 73 % 0.0 in
12:42 0.7 °F -3.8 °F 1020.5 in East 6.4 mph 6.4 mph 72 % 0.0 in
12:47 0.6 °F -3.9 °F 1020.5 in East 4.8 mph 6.4 mph 72 % 0.0 in
12:57 1.0 °F -3.7 °F 1020.5 in ENE 9.7 mph 9.7 mph 71 % 0.0 in
13:02 1.1 °F -3.6 °F 1020.5 in East 8.0 mph 11.3 mph 71 % 0.0 in
13:07 1.2 °F -3.5 °F 1020.5 in ESE 4.8 mph 11.3 mph 71 % 0.0 in
13:12 1.3 °F -3.4 °F 1020.5 in ESE 4.8 mph 11.3 mph 71 % 0.0 in
13:17 1.7 °F -3.2 °F 1020.5 in SE 6.4 mph 11.3 mph 70 % 0.0 in
13:22 1.7 °F -3.0 °F 1020.5 in SE 9.7 mph 11.3 mph 71 % 0.0 in
13:27 1.8 °F -3.1 °F 1020.5 in SSE 6.4 mph 12.9 mph 70 % 0.0 in
13:32 2.2 °F -2.9 °F 1020.5 in East 4.8 mph 12.9 mph 69 % 0.0 in
13:37 2.4 °F -3.1 °F 1020.2 in SE 11.3 mph 12.9 mph 67 % 0.0 in
13:42 2.8 °F -2.7 °F 1020.2 in South 3.2 mph 19.3 mph 67 % 0.0 in
13:47 3.1 °F -2.4 °F 1019.9 in SSE 8.0 mph 19.3 mph 67 % 0.0 in
13:52 3.1 °F -3.0 °F 1019.9 in SE 3.2 mph 19.3 mph 64 % 0.0 in
13:57 3.0 °F -2.9 °F 1019.9 in ESE 6.4 mph 14.5 mph 65 % 0.0 in
14:02 3.1 °F -2.6 °F 1019.9 in SE 6.4 mph 14.5 mph 66 % 0.0 in
14:07 3.1 °F -2.8 °F 1019.9 in ESE 6.4 mph 12.9 mph 65 % 0.0 in
14:12 3.4 °F -2.6 °F 1019.9 in East 6.4 mph 12.9 mph 65 % 0.0 in
14:17 3.6 °F -2.8 °F 1019.9 in ENE 4.8 mph 12.9 mph 63 % 0.0 in
14:22 3.9 °F -2.7 °F 1019.5 in East 8.0 mph 12.9 mph 62 % 0.0 in
14:27 3.9 °F -2.9 °F 1019.2 in ENE 12.9 mph 12.9 mph 61 % 0.0 in
14:32 4.0 °F -2.8 °F 1019.5 in East 12.9 mph 17.7 mph 61 % 0.0 in
14:37 4.1 °F -2.7 °F 1018.8 in East 8.0 mph 17.7 mph 61 % 0.0 in
14:42 4.2 °F -2.7 °F 1018.8 in East 6.4 mph 17.7 mph 61 % 0.0 in
14:47 4.3 °F -2.6 °F 1018.8 in East 4.8 mph 16.1 mph 61 % 0.0 in
14:52 4.6 °F -2.3 °F 1019.2 in SE 3.2 mph 16.1 mph 61 % 0.0 in
14:57 4.6 °F -2.5 °F 1019.2 in ESE 3.2 mph 16.1 mph 60 % 0.0 in
15:02 4.6 °F -2.5 °F 1018.8 in East 3.2 mph 14.5 mph 60 % 0.0 in
15:07 4.8 °F -2.3 °F 1018.8 in ESE 4.8 mph 14.5 mph 60 % 0.0 in
15:12 4.9 °F -2.4 °F 1018.8 in East 8.0 mph 14.5 mph 59 % 0.0 in
15:17 5.1 °F -2.5 °F 1018.8 in ENE 11.3 mph 11.3 mph 58 % 0.0 in
15:22 5.2 °F -2.6 °F 1018.8 in ENE 6.4 mph 14.5 mph 57 % 0.0 in
15:27 5.2 °F -2.6 °F 1018.5 in ESE 1.6 mph 14.5 mph 57 % 0.0 in
15:32 5.3 °F -2.3 °F 1018.5 in East 4.8 mph 14.5 mph 58 % 0.0 in
15:37 5.5 °F -2.1 °F 1018.8 in East 8.0 mph 14.5 mph 58 % 0.0 in
15:42 5.4 °F -2.4 °F 1018.8 in ESE 1.6 mph 12.9 mph 57 % 0.0 in
15:47 5.4 °F -2.4 °F 1018.5 in East 3.2 mph 12.9 mph 57 % 0.0 in
15:52 5.5 °F -2.1 °F 1018.5 in East 4.8 mph 12.9 mph 58 % 0.0 in
15:57 5.5 °F -2.3 °F 1018.5 in ENE 4.8 mph 12.9 mph 57 % 0.0 in
16:02 5.4 °F -2.2 °F 1018.5 in ENE 4.8 mph 9.7 mph 58 % 0.0 in
16:12 5.4 °F -2.2 °F 1018.2 in ENE 9.7 mph 11.3 mph 58 % 0.0 in
16:17 5.4 °F -2.2 °F 1018.2 in East 4.8 mph 16.1 mph 58 % 0.0 in
16:22 5.4 °F -2.2 °F 1018.2 in East 1.6 mph 16.1 mph 58 % 0.0 in
16:27 5.3 °F -2.5 °F 1018.2 in ENE 1.6 mph 16.1 mph 57 % 0.0 in
16:32 5.3 °F -2.3 °F 1018.2 in East 3.2 mph 14.5 mph 58 % 0.0 in
16:37 5.1 °F -2.3 °F 1018.2 in ENE 1.6 mph 8.0 mph 59 % 0.0 in
16:42 4.9 °F -2.2 °F 1018.2 in ENE 3.2 mph 8.0 mph 60 % 0.0 in
16:47 4.8 °F -2.1 °F 1017.8 in ENE 3.2 mph 6.4 mph 61 % 0.0 in
16:52 4.7 °F -2.2 °F 1017.8 in Calm   6.4 mph 61 % 0.0 in
16:57 4.7 °F -2.2 °F 1017.8 in East 1.6 mph 6.4 mph 61 % 0.0 in
17:02 4.7 °F -2.2 °F 1017.8 in East 1.6 mph 6.4 mph 61 % 0.0 in
17:07 4.5 °F -2.4 °F 1017.8 in Calm   3.2 mph 61 % 0.0 in
17:12 4.4 °F -2.2 °F 1017.8 in Calm   3.2 mph 62 % 0.0 in
17:17 4.2 °F -2.4 °F 1017.8 in East 1.6 mph 3.2 mph 62 % 0.0 in
17:22 4.2 °F -2.4 °F 1017.5 in Calm   1.6 mph 62 % 0.0 in
17:27 4.3 °F -2.3 °F 1017.8 in Calm   1.6 mph 62 % 0.0 in
17:32 4.1 °F -2.5 °F 1017.8 in Calm   1.6 mph 62 % 0.0 in
17:37 3.8 °F -2.6 °F 1017.8 in Calm   1.6 mph 63 % 0.0 in
17:42 3.7 °F -2.7 °F 1017.5 in Calm   1.6 mph 63 % 0.0 in
17:47 3.4 °F -2.8 °F 1017.5 in Calm   1.6 mph 64 % 0.0 in
17:52 3.4 °F -2.8 °F 1017.5 in Calm   1.6 mph 64 % 0.0 in
17:57 3.3 °F -2.7 °F 1017.5 in NE 4.8 mph   65 % 0.0 in
18:02 3.3 °F -2.9 °F 1017.2 in NNE 1.6 mph 3.2 mph 64 % 0.0 in
18:12 3.2 °F -3.0 °F 1017.2 in NE 1.6 mph 4.8 mph 64 % 0.0 in
18:17 3.1 °F -2.8 °F 1017.2 in NE 1.6 mph 4.8 mph 65 % 0.0 in
18:22 3.1 °F -2.8 °F 1017.2 in NE 1.6 mph 4.8 mph 65 % 0.0 in
18:32 2.5 °F -3.0 °F 1017.2 in East 1.6 mph 3.2 mph 67 % 0.0 in
18:37 2.2 °F -2.9 °F 1017.2 in Calm   3.2 mph 69 % 0.0 in
18:42 2.2 °F -2.7 °F 1017.2 in Calm   4.8 mph 70 % 0.0 in
18:47 2.2 °F -2.9 °F 1017.5 in Calm   4.8 mph 69 % 0.0 in
18:52 1.9 °F -3.2 °F 1017.5 in SSE 1.6 mph 3.2 mph 69 % 0.0 in
19:02 1.1 °F -3.4 °F 1017.5 in Calm   3.2 mph 72 % 0.0 in
19:07 1.2 °F -3.3 °F 1017.5 in Calm   3.2 mph 72 % 0.0 in
19:12 1.1 °F -3.4 °F 1017.5 in Calm   3.2 mph 72 % 0.0 in
19:17 1.2 °F -3.3 °F 1017.5 in Calm   1.6 mph 72 % 0.0 in
19:22 1.3 °F -3.4 °F 1017.5 in Calm   1.6 mph 71 % 0.0 in
19:32 1.4 °F -3.5 °F 1017.5 in SE 4.8 mph 4.8 mph 70 % 0.0 in
19:37 1.4 °F -3.3 °F 1017.5 in ESE 1.6 mph 8.0 mph 71 % 0.0 in
19:42 1.6 °F -3.1 °F 1017.5 in ESE 4.8 mph 9.7 mph 71 % 0.0 in
19:47 1.9 °F -3.0 °F 1017.5 in SSE 3.2 mph 16.1 mph 70 % 0.0 in
19:52 1.8 °F -2.9 °F 1017.5 in SE 4.8 mph 16.1 mph 71 % 0.0 in
19:57 1.6 °F -2.9 °F 1017.5 in East 3.2 mph 16.1 mph 72 % 0.0 in
20:02 1.7 °F -2.8 °F 1017.2 in East 4.8 mph 16.1 mph 72 % 0.0 in
20:07 1.7 °F -2.8 °F 1017.2 in East 9.7 mph 11.3 mph 72 % 0.0 in
20:12 1.7 °F -2.8 °F 1017.2 in ESE 1.6 mph 11.3 mph 72 % 0.0 in
20:17 1.7 °F -2.8 °F 1017.2 in ENE 16.1 mph 16.1 mph 72 % 0.0 in
20:22 1.7 °F -2.8 °F 1016.5 in East 16.1 mph 17.7 mph 72 % 0.0 in
20:27 1.8 °F -2.7 °F 1016.8 in ESE 16.1 mph 22.5 mph 72 % 0.0 in
20:32 1.9 °F -2.4 °F 1016.5 in East 9.7 mph 22.5 mph 73 % 0.0 in
20:37 2.1 °F -2.2 °F 1016.5 in East 11.3 mph 22.5 mph 73 % 0.0 in
20:42 2.1 °F -2.0 °F 1016.5 in East 9.7 mph 19.3 mph 74 % 0.0 in
20:47 2.2 °F -2.0 °F 1016.5 in SE 3.2 mph 19.3 mph 74 % 0.0 in
20:52 2.3 °F -1.9 °F 1016.5 in SE 3.2 mph 19.3 mph 74 % 0.0 in
20:57 2.3 °F -1.7 °F 1016.5 in East 3.2 mph 17.7 mph 75 % 0.0 in
21:02 2.3 °F -1.3 °F 1016.8 in SE 6.4 mph 17.7 mph 77 % 0.0 in
21:07 2.7 °F -0.8 °F 1016.5 in ESE 16.1 mph 22.5 mph 78 % 0.0 in
21:12 3.2 °F -0.3 °F 1016.5 in SE 16.1 mph 25.7 mph 78 % 0.0 in
21:17 3.4 °F -0.1 °F 1016.8 in SE 16.1 mph 25.7 mph 78 % 0.0 in
21:22 3.5 °F 0.4 °F 1016.5 in SE 20.9 mph 25.7 mph 80 % 0.0 in
21:27 3.6 °F 0.8 °F 1016.5 in SE 17.7 mph 29.0 mph 82 % 0.0 in
21:32 3.7 °F 1.1 °F 1016.5 in SE 14.5 mph 29.0 mph 83 % 0.0 in
21:37 3.7 °F 1.1 °F 1016.1 in SE 11.3 mph 30.6 mph 83 % 0.0 in
21:42 3.4 °F 1.1 °F 1016.1 in SE 14.5 mph 30.6 mph 85 % 0.0 in
21:47 3.3 °F 1.2 °F 1015.8 in SE 6.4 mph 30.6 mph 86 % 0.3 in
21:52 2.9 °F 0.8 °F 1015.8 in ESE 4.8 mph 30.6 mph 86 % 0.3 in
21:57 2.7 °F 0.8 °F 1015.8 in SSE 4.8 mph 25.7 mph 87 % 0.3 in
22:02 2.9 °F 1.1 °F 1015.5 in ESE 14.5 mph 25.7 mph 88 % 0.3 in
22:12 3.1 °F 1.1 °F 1015.5 in ESE 6.4 mph 27.4 mph 87 % 0.3 in
22:17 2.8 °F 0.9 °F 1015.5 in SE 6.4 mph 27.4 mph 87 % 0.3 in
22:22 2.7 °F 0.9 °F 1015.5 in SE 6.4 mph 27.4 mph 88 % 0.3 in
22:27 2.6 °F 0.8 °F 1015.5 in SSE 4.8 mph 16.1 mph 88 % 0.3 in
22:32 2.6 °F 0.8 °F 1015.5 in SSE 8.0 mph 16.1 mph 88 % 0.3 in
22:37 2.6 °F 1.0 °F 1015.5 in East 9.7 mph 12.9 mph 89 % 0.3 in
22:42 2.7 °F 1.1 °F 1015.5 in SSE 4.8 mph 12.9 mph 89 % 0.3 in
22:47 2.8 °F 1.2 °F 1015.5 in SE 4.8 mph 14.5 mph 89 % 0.0 in
22:57 3.1 °F 1.5 °F 1015.5 in SE 6.4 mph 14.5 mph 89 % 0.0 in
23:07 2.9 °F 1.1 °F 1015.5 in SSE 6.4 mph 17.7 mph 88 % 0.0 in
23:12 2.8 °F 0.9 °F 1015.5 in ESE 8.0 mph 17.7 mph 87 % 0.0 in
23:17 2.8 °F 0.9 °F 1015.5 in ESE 3.2 mph 19.3 mph 87 % 0.0 in
23:32 2.5 °F 0.6 °F 1015.5 in SE 3.2 mph 17.7 mph 87 % 0.0 in
23:37 2.4 °F 0.5 °F 1015.5 in ESE 6.4 mph 11.3 mph 87 % 0.0 in
23:42 2.6 °F 0.5 °F 1015.5 in SE 4.8 mph 11.3 mph 86 % 0.0 in
23:52 2.4 °F 0.1 °F 1015.5 in ESE 6.4 mph 27.4 mph 85 % 0.0 in
Meteo18
Compliments of Weather Underground - 4 mb

Script developed by  Jim McMurry - jmcmurry@mwt.net Adapted for the template by  Wim van der Kuil - Leuven-Template.eu

You find our weather info also at:

European Weather Network

Weather Underground

Equipment we use:

Weather-station
Davis Vue

Weather-program
Meteobridge

Weather-server
Raspberry PI 2 B+

Provider
1 and 1

Davis Vue

Meteobridge

Raspberry PI 2 B+

1 and 1